Regional Weather Roundup
Issued by NWS Austin/San Antonio, TX

Home | Current Version | Previous Version | Text Only | Print | Product List | Glossary On
Versions: 1 2 3 4 5 6 7 8 9 10 11 12 13 14 15 16 17 18 19 20 21 22 23 24 25 26 27 28 29 30 31 32 33 34 35 36 37 38 39 40 41 42 43 44 45 46 47 48 49 50
000
ASUS44 KEWX 211912
RWREWX
SOUTH TEXAS REGIONAL WEATHER ROUNDUP
NATIONAL WEATHER SERVICE AUSTIN/SAN ANTONIO TX
200 PM CDT FRI JUL 21 2017

NOTE: "FAIR" INDICATED FEW OR NO CLOUDS BELOW 12,000 FEET WITH NO
SIGNIFICANT WEATHER AND/OR OBSTRUCTIONS TO VISIBILITY.

* - THESE STATIONS ARE NOT NWS OR FAA STATIONS...AND ARE NOT SUBJECT
    TO NWS AND FAA QUALITY CONTROL.

TXZ171-172-183>190-212000-
TEXAS HILL COUNTRY AND EDWARDS PLATEAU

CITY           SKY/WX    TMP DP  RH WIND       PRES   REMARKS
JUNCTION       MOSUNNY   96  61  31 S9G17     30.02F HX  96
*LLANO           N/A    N/A N/A N/A MISG        N/A
BURNET         SUNNY     97  61  30 VRB5      30.04F HX  97
*HORSESHOE BAY SUNNY     99  61  28 CALM      30.01F HX  99
*KERRVILLE     SUNNY     94  64  37 S12       30.05F HX  96
*FREDERICKSBRG SUNNY     94  57  28 SE7       30.05F HX  93
*ROCKSPRINGS   MOSUNNY   95  63  34 S12       30.09F HX  96
*BOERNE STAGE  SUNNY     91  61  35 S12       30.05F HX  91
*CASTROVILLE   SUNNY     99  57  24 S8G16     30.01F HX  98
HONDO          SUNNY     99  62  29 SE10G21   30.00F HX 100
*UVALDE        MOSUNNY   97  65  35 E13G18    30.00F HX  99
DEL RIO        SUNNY     97  64  33 SE14      29.96F HX  99
LAUGHLIN AFB   MOSUNNY   96  66  37 SE14      29.97F HX  99
CARRIZO SPRGS  SUNNY    100  61  27 SE10G20   29.95F HX 101
*EAGLE PASS    CLEAR     99  63  30 SE8G20    29.96F HX 100
$$

TXZ173-191>194-202-209-217>225-228-212000-
CENTRAL AND SOUTH CENTRAL TEXAS

CITY           SKY/WX    TMP DP  RH WIND       PRES   REMARKS
GEORGETOWN     SUNNY     95  63  34 S12       30.00F HX  96
AUSTIN/BERGSTM MOSUNNY   98  68  37 S10G16    29.99F HX 103
AUSTIN/MABRY   SUNNY     99  64  31 VRB6      30.01F HX 101
*AUSTIN/EXEC     N/A     95  68  41 SW9       30.01F HX  99
*LAGO VISTA    MOSUNNY   97  63  31 SE10      30.04F HX  99
SAN MARCOS     SUNNY     99  64  32 S8        30.02  HX 101
NEW BRAUNFELS  SUNNY     98  66  34 S9G22     30.00F HX 101
RANDOLPH AFB   MOSUNNY   96  64  34 SE9       30.01F HX  98
PT SAN ANTONIO MOSUNNY   97  65  33 SE5       29.99F HX 100
SAN ANTONIO    MOSUNNY   97  64  33 S14       30.02F HX  99
STINSON FIELD  SUNNY    100  63  29 SE9       29.98F HX 102
*LA GRANGE     MOSUNNY   96  72  46 S7        29.99F HX 105
*GIDDINGS      MOSUNNY   95  67  39 S9        30.01F HX  99
*GONZALES      MOSUNNY   96  71  44 S7        30.00F HX 103
$$

TXZ163>164-176>182-195>201-210>213-226-227-235-212000-
SOUTHEAST TEXAS

CITY           SKY/WX    TMP DP  RH WIND       PRES   REMARKS
COLLEGE STN    MOSUNNY   95  71  45 SE13      30.00F HX 102
*BRYAN         MOSUNNY   94  69  44 SE5       30.01F HX  99
*CALDWELL      NOT AVBL
*CROCKETT      PTSUNNY   91  73  55 CALM      30.04F HX 100
*BRENHAM       MOSUNNY   96  69  41 S6G17     30.01F HX 102
HUNTSVILLE     SUNNY     92  69  47 VRB6      30.02F HX  97
CONROE         MOSUNNY   92  73  53 SW6       30.02F HX 100
HOUSTON BUSH   PTSUNNY   94  72  48 SE3       30.00F HX 102
HOUSTON HOBBY  MOSUNNY   95  72  47 CALM      30.00F HX 103
*HOUSTON SW AP MOSUNNY   89  74  59 CALM      30.01F HX  98
PEARLAND       MOSUNNY   95  71  45 SE5       30.02F HX 102
HOUSTON HOOKS  PTSUNNY   92  73  53 MISG      30.01F HX 100
ELLINGTON FLD  PTSUNNY   93  72  49 E5        30.02F HX 100
SUGAR LAND     MOSUNNY   93  74  53 S7        30.00F HX 103
*HOUSTON EXEC  SUNNY     93  73  52 W5        30.02F HX 102
*CLEVELAND MUN SUNNY     93  74  52 CALM      30.02F HX 103
*WHARTON       MOSUNNY   93  68  43 SE5       30.01F HX  97
*COLUMBUS      FAIR      96  67  39 SE7       30.02F HX 100
*EAGLE LAKE    MOCLDY    94  74  51 SE5       30.01F HX 104
$$

TXZ214>216-236>238-212000-
THE UPPER TEXAS COAST

CITY           SKY/WX    TMP DP  RH WIND       PRES   REMARKS
*ORANGE        PTSUNNY   92  74  54 CALM      30.02F HX 101
PORT ARTHUR    PTSUNNY   93  72  50 CALM      30.00F HX 101
GALVESTON      MOSUNNY   89  79  72 SE10      30.02F HX 104
ANGLETON       CLOUDY    91  76  61 CALM      30.01F HX 103
*BAY CITY      MOSUNNY   89  75  63 S7        30.02F HX  98
PALACIOS       MOSUNNY   88  77  69 S12       30.02F HX 100
$$

TXZ229>234-239>247-212000-
TEXAS COASTAL BEND AND RIO GRANDE PLAINS

CITY           SKY/WX    TMP DP  RH WIND       PRES   REMARKS
VICTORIA       MOSUNNY   96  72  45 SE14      30.00F HX 104
*BEEVILLE      MOSUNNY   95  73  48 SE13      30.00F HX 104
ROCKPORT       MOSUNNY   93  75  55 SE15      30.01F HX 104
*PORT ARANSAS  MOSUNNY   88  76  68 SE9       30.02F HX  99
*PORT LAVACA   MOSUNNY   90  76  64 S9        30.02S HX 101
*INGLESIDE     SUNNY     92  74  55 MISG      30.01F HX 102
CORPUS CHRISTI MOSUNNY   94  74  52 SE14G23   30.00F HX 104
CORPUS NAS     MOSUNNY   93  79  63 SE14      30.01F HX 110
*ROBSTOWN      MOSUNNY   97  69  40 SE8G18    29.99F HX 102
ALICE          MOSUNNY   97  68  38 SE12      29.97F HX 102
KINGSVILLE NAS MOSUNNY   97  75  49 SE16G22   29.98F HX 109
COTULLA        SUNNY    101  56  22 SE14G23   29.97F HX 100
*FAITH RANCH   SUNNY    100  59  25 SE8G24    29.96F HX 100
LAREDO         SUNNY    101  63  28 SE13G21     N/A  HX 103
$$

TXZ248>255-212000-
DEEP SOUTH TEXAS

CITY           SKY/WX    TMP DP  RH WIND       PRES   REMARKS
BROWNSVILLE    MOSUNNY   92  76  59 SE15      30.00F HX 104
PORT ISABEL    MOSUNNY   93  77  59 E20       29.99F HX 107
*SOUTH PADRE   NOT AVBL
HARLINGEN      MOSUNNY   97  72  44 SE17G23   29.97F HX 105
*HEBBRONVILLE  SUNNY     96  60  29 SE14      29.99F HX  96
MCALLEN        MOSUNNY  101  69  35 SE20G25   29.97F HX 107
*WESLACO       PTSUNNY   97  70  41 S14       29.97F HX 103
FALFURRIAS     MOSUNNY   96  69  40 SE7       29.97F HX 101
EDINBURG       MOSUNNY  101  64  29 SE15G21   29.98F HX 104
*ZAPATA        SUNNY    101  58  24 SE14G22   29.95F HX 100
$$

TXZ213>215-236>238-242>244-246-247-251-254-255-212000-
CMAN STATIONS

STATION/POSITION TIME  TEMP    WIND        PRES    WAVE
                       AIR SEA DIR/SP/G            HT/PER
                 (UTC) (F)     (DEG/KT/KT) (MB)    (FT/S)
SABINE PASS      1842   82 90   10/  4/  7 1018.2
SEA RIM ST PARK  1900   86     230/  7/  9 1017.0
NORTH JETTY/GLS  1842      87  130/  5/  6 1016.2
EAGLE POINT      1842   86 90  150/  8/  9 1016.6
MORGANS POINT    1848   88 88  160/  8/ 10 1016.2
MISSION/ARANSAS  1800          150/ 11     1017.0
PORT O`CONNOR    1842   86     170/  9/ 12 1016.4
PORT ARANSAS     1900   85 88  140/ 10/ 11 1016.7
MALAQUITE BEACH  1848   85 87  120/ 11/ 12 1015.9
BAFFIN BAY       1848   87 89              1016.3
PORT ISABEL      1848   87 85              1016.3
$$




USA.gov is the U.S. government's official web portal to all federal, state and local government web resources and services.